Weather History for Christchurch, New Zealand

Change the Weather History Date:

Wednesday, November 9, 2011

  Actual Average Record
Temperature  
Mean Temperature 54 °F -  
Max Temperature 59 °F 63 °F 77 °F (2004)
Min Temperature 48 °F 43 °F 30 °F (2000)
Degree Days  
Heating Degree Days 12    
Growing Degree Days 4 (Base 50)    
Moisture  
Dew Point 51 °F    
Average Humidity 94    
Maximum Humidity 100    
Minimum Humidity 82    
Precipitation  
Precipitation 0.00 in - - ()
Sea Level Pressure  
Sea Level Pressure 29.92 in    
Wind  
Wind Speed 8 mph ()    
Max Wind Speed 18 mph    
Max Gust Speed -    
Visibility 5.9 miles    
Events Rain    
Averages and records for this station are not official NWS values.
T = Trace of Precipitation, MM = Missing Value Source: Averaged Metar Reports

Daily Weather History Graph

Daily Weather History Graph

Search for Another Location

Airport:

Trip Planner

Search our weather history database for the weather conditions in past years. The results will help you decide how hot, cold, wet, or windy it might be!

Date:

Astronomy

Nov. 09, 2011 Rise Set
Actual Time 6:02 AM NZDT 8:25 PM NZDT
Civil Twilight 5:30 AM NZDT 8:57 PM NZDT
Nautical Twilight 4:51 AM NZDT 9:36 PM NZDT
Astronomical Twilight 4:07 AM NZDT 10:21 PM NZDT
Moon 6:58 PM NZDT (11/9) 4:46 AM NZDT (11/9)
Length of Visible Light 15h 26m
Length of Day
14h 22m
Waxing Gibbous, 97% of the Moon is Illuminated
Nov 9
Waxing Gibbous
Nov 11
Full
Nov 19
Last Quarter
Nov 25
New
Dec 2
First Quarter

Hourly Weather History & Observations

Time (NZDT) Temp. Dew Point Humidity Pressure Visibility Wind Dir Wind Speed Gust Speed Precip Events Conditions
12:00 AM 51.8 °F 50.0 °F 94% 29.95 in 6.2 mi NNE 10.4 mph - N/A   Drizzle
1:00 AM 51.8 °F 50.0 °F 94% 29.98 in 6.2 mi NE 6.9 mph - N/A   Drizzle
2:00 AM 51.8 °F 50.0 °F 94% 29.95 in 6.2 mi NE 6.9 mph - N/A   Mostly Cloudy
3:00 AM 51.8 °F 50.0 °F 94% 29.95 in 6.2 mi ENE 3.5 mph - N/A   Mostly Cloudy
4:00 AM 51.8 °F 50.0 °F 94% 29.95 in 6.2 mi NE 2.3 mph - N/A   Mostly Cloudy
5:00 AM 50.0 °F 48.2 °F 94% 29.95 in 6.2 mi North 2.3 mph - N/A   Mostly Cloudy
6:00 AM 50.0 °F 50.0 °F 100% 29.95 in 6.2 mi NNE 3.5 mph - N/A   Mostly Cloudy
7:00 AM 51.8 °F 51.8 °F 100% 29.95 in 6.2 mi NNE 3.5 mph - N/A   Overcast
9:00 AM 53.6 °F 51.8 °F 94% 29.98 in 6.2 mi ENE 10.4 mph - N/A   Overcast
10:00 AM 55.4 °F 51.8 °F 88% 29.95 in 6.2 mi ENE 10.4 mph - N/A   Overcast
11:00 AM 55.4 °F 51.8 °F 88% 29.95 in 6.2 mi ENE 9.2 mph - N/A   Overcast
12:00 PM 57.2 °F 51.8 °F 82% 29.89 in 6.2 mi East 15.0 mph - N/A   Overcast
1:00 PM 57.2 °F 51.8 °F 82% 29.92 in 6.2 mi ENE 12.7 mph - N/A   Overcast
2:00 PM 59.0 °F 53.6 °F 82% 29.89 in 6.2 mi ENE 13.8 mph - N/A   Mostly Cloudy
3:00 PM 55.4 °F 53.6 °F 94% 29.89 in 6.2 mi ENE 13.8 mph - N/A Rain Light Rain
4:00 PM 55.4 °F 53.6 °F 94% 29.83 in 6.2 mi ENE 18.4 mph - N/A Rain Light Rain
5:00 PM 53.6 °F 53.6 °F 100% 29.83 in 6.2 mi ENE 16.1 mph - N/A Rain Light Rain
6:00 PM 53.6 °F 53.6 °F 100% 29.80 in 6.2 mi ENE 12.7 mph - N/A Rain Light Rain
7:00 PM 53.6 °F 53.6 °F 100% 29.83 in 6.2 mi ENE 13.8 mph - N/A Rain Light Rain
8:00 PM 53.6 °F 53.6 °F 100% 29.86 in 5.0 mi ENE 8.1 mph - N/A Rain Light Rain
9:00 PM 51.8 °F 51.8 °F 100% 29.89 in 5.0 mi ESE 5.8 mph - N/A Rain Rain
9:30 PM 50.0 °F 50.0 °F 100% 29.92 in 5.0 mi South 11.5 mph - N/A Rain Rain
10:00 PM 50.0 °F 48.2 °F 94% 29.95 in 5.0 mi South 18.4 mph - N/A Rain Rain
10:30 PM 48.2 °F 46.4 °F 93% 29.98 in 5.0 mi South 17.3 mph - N/A Rain Rain
11:00 PM 48.2 °F 48.2 °F 100% 30.01 in 5.0 mi South 17.3 mph - N/A Rain Rain